Regional Weather Roundup
Issued by NWS

Home | Current Version | Previous Version | Graphics & Text | Print | Product List | Glossary On
Versions: 1 2 3 4 5 6 7 8 9 10 11 12 13 14 15 16 17 18 19 20 21 22 23 24 25 26 27 28 29 30 31 32 33 34 35 36 37 38 39 40 41 42 43 44 45 46 47 48 49 50
000
ASUS43 KOAX 232210
RWRNE

WEATHER ROUNDUP FOR NEBRASKA
NATIONAL WEATHER SERVICE OMAHA NE
400 PM CST THU FEB 23 2017

NOTES: SATELLITE DATA IS BEING USED TO AUGMENT CLOUD COVER ABOVE
       12000 FEET.
       "FAIR" INDICATES FEW OR NO CLOUDS BELOW 12,000 FEET WITH NO
       SIGNIFICANT WEATHER AND/OR OBSTRUCTIONS TO VISIBILITY.

  * THESE STATIONS DO NOT REPORT WEATHER SUCH AS RAIN...SNOW OR FOG.

NEZ001>004-019>022-054>056-232300-
NEBRASKA PANHANDLE

CITY           SKY/WX    TMP DP  RH WIND       PRES   REMARKS
SCOTTSBLUFF    HAZE      24  19  81 NE13      29.73R VSB 1/2 WCI  12
ALLIANCE       FOG       22  19  89 NE26G32   29.69R VSB 1/4 WCI   5
CHADRON        FOG       25  22  88 NE24G30   29.80R VSB 1/2 WCI   9
KIMBALL        LGT SNOW  22  20  95 N18       29.66R WCI   7
SIDNEY         LGT SNOW  23  19  85 N18       29.66R VSB 1   WCI   9
$$

NEZ057>060-069>072-079>082-232300-
SOUTHWEST NEBRASKA

CITY           SKY/WX    TMP DP  RH WIND       PRES   REMARKS
NORTH PLATTE   LGT SNOW  30  25  81 NE16      29.63R WCI  19
IMPERIAL       SNOW      28  25  88 N16       29.63R VSB 1/2 WCI  16
LEXINGTON      SNOW      31  30  93 NE17      29.59F VSB 1/2 WCI  20
MCCOOK         LGT SNOW  31  31 100 NE13      29.60R VSB 3/4 WCI  21
OGALLALA       LGT SNOW  29  26  88 NE14      29.66R WCI  18
$$

NEZ005>010-023>029-035>040-094-232300-
NORTH CENTRAL NEBRASKA

CITY           SKY/WX    TMP DP  RH WIND       PRES   REMARKS
VALENTINE      SNOW      26  22  84 NE21G32   29.76R VSB 1/4 WCI  12
AINSWORTH      LGT SNOW  27  26  97 N24       29.71S VSB 3/4 WCI  12
BROKEN BOW     LGT SNOW  30  27  88 NE14      29.64R VSB 3/4 WCI  19
O`NEILL        MIX PCPN  30  29  96 N28G36    29.69F WCI  15
ORD            LGT SNOW  30  26  85 NE16G24   29.64F VSB 3/4 WCI  19
THEDFORD       LGT SNOW  28  25  89 NE18G29   29.66R WCI  15
$$

NEZ041-046>049-061>064-073>077-083>087-232300-
SOUTH CENTRAL NEBRASKA

CITY           SKY/WX    TMP DP  RH WIND       PRES   REMARKS
GRAND ISLAND   FRZ RAIN  32  32 100 NE22G28   29.58F FOG     WCI  19
AURORA         LGT RAIN  33  32  96 NE17G23   29.59R WCI  22
HASTINGS       LGT RAIN  33  32  96 NE18      29.60R FOG     WCI  22
HEBRON         CLOUDY    39  36  86 NE14G20   29.54R FOG     WCI  31
HOLDREGE       MIX PCPN  32  31  96 NE15      29.60R WCI  22
KEARNEY *      CLOUDY    32  28  86 NE16      29.62R WCI  21
YORK           LGT RAIN  34  34 100 NE20G26   29.60R WCI  22
$$

NEZ011>018-030>034-042>045-232300-
NORTHEAST NEBRASKA

CITY           SKY/WX    TMP DP  RH WIND       PRES   REMARKS
NORFOLK        CLOUDY    32  26  78 NE26G40   29.61F WCI  18
ALBION         FLURRIES  34  28  80 NE14G20   29.65R WCI  24
BLAIR          CLOUDY    38  34  85 NE20G29   29.61R WCI  28
FREMONT        CLOUDY    37  33  85 NE18G25   29.61F WCI  27
TEKAMAH        CLOUDY    37  32  82 NE25G39   29.63F WCI  25
WAYNE          CLOUDY    33  29  85 NE23G30   29.68S WCI  21
$$

NEZ050>053-065>068-078-088>093-232300-
SOUTHEAST NEBRASKA

CITY           SKY/WX    TMP DP  RH WIND       PRES   REMARKS
LINCOLN        LGT RAIN  38  36  92 NE18G26   29.57F FOG     WCI  28
OMAHA EPPLEY   CLOUDY    41  33  73 NE18G26   29.63R
BEATRICE       CLOUDY    42  37  80 NE17G25   29.52R
FALLS CITY     CLOUDY    49  40  71 NE9       29.50S
NEBRASKA CITY  CLOUDY    43  36  77 NE20G25   29.54R THUNDER
PLATTSMOUTH    CLOUDY    42  34  74 NE18G25   29.56R
$$

NEZ044-045-051>053-067-232300-
OMAHA AREA

CITY           SKY/WX    TMP DP  RH WIND       PRES   REMARKS
OMAHA EPPLEY   CLOUDY    41  33  73 NE18G26   29.63R
BLAIR          CLOUDY    38  34  85 NE20G29   29.61R WCI  28
FREMONT        CLOUDY    37  33  85 NE18G25   29.61F WCI  27
MILLARD        CLOUDY    42  36  80 NE12G17   29.60R
OFFUTT AFB     LGT RAIN  41  35  79 NE14G22   29.59F
PLATTSMOUTH    CLOUDY    42  34  74 NE18G25   29.56R
WAHOO          CLOUDY    37  33  85 NE26G35   29.57F WCI  25
$$




USA.gov is the U.S. government's official web portal to all federal, state and local government web resources and services.